�������l�o���
Date,Time,MP-1(��Sv/h),MP-2(��Sv/h),MP-3(��Sv/h),MP-4(��Sv/h),MP-5(��Sv/h),MP-6(��Sv/h),MP-7(��Sv/h),MP-8(��Sv/h),����,����(m/s),���J
2017/03/08,00:00,1.053,1.729,1.171,2.049,1.432,0.557,1.018,0.948,�쐼,3.2,��
2017/03/08,00:10,1.055,1.730,1.170,2.048,1.433,0.556,1.020,0.946,���쐼,3.4,��
2017/03/08,00:20,1.054,1.730,1.171,2.044,1.434,0.556,1.020,0.948,���쐼,2.9,��
2017/03/08,00:30,1.054,1.731,1.172,2.044,1.431,0.556,1.018,0.947,���쐼,3.1,��
2017/03/08,00:40,1.054,1.729,1.172,2.049,1.429,0.557,1.017,0.946,���쐼,2.6,��
2017/03/08,00:50,1.055,1.728,1.172,2.045,1.429,0.554,1.017,0.943,���쐼,3.3,��
2017/03/08,01:00,1.055,1.726,1.171,2.043,1.433,0.555,1.019,0.947,���쐼,3.5,��
2017/03/08,01:10,1.053,1.730,1.170,2.044,1.433,0.555,1.019,0.944,�쐼,3.2,��
2017/03/08,01:20,1.051,1.730,1.172,2.046,1.432,0.556,1.020,0.943,�쐼,2.3,��
2017/03/08,01:30,1.054,1.726,1.170,2.046,1.429,0.556,1.019,0.945,�쐼,3.0,��
2017/03/08,01:40,1.055,1.728,1.170,2.042,1.430,0.555,1.021,0.947,���쐼,3.6,��
2017/03/08,01:50,1.052,1.730,1.169,2.045,1.431,0.554,1.018,0.946,��,3.5,��
2017/03/08,02:00,1.050,1.731,1.171,2.047,1.431,0.556,1.019,0.944,��,3.5,��
2017/03/08,02:10,1.052,1.729,1.173,2.049,1.431,0.555,1.019,0.946,���쐼,1.9,��
2017/03/08,02:20,1.052,1.728,1.172,2.047,1.431,0.553,1.018,0.948,��,2.9,��
2017/03/08,02:30,1.052,1.732,1.171,2.049,1.431,0.554,1.018,0.945,��,3.8,��
2017/03/08,02:40,1.053,1.734,1.169,2.047,1.430,0.555,1.019,0.946,���쐼,4.4,��
2017/03/08,02:50,1.053,1.729,1.171,2.046,1.426,0.555,1.020,0.946,���쐼,3.4,��
2017/03/08,03:00,1.052,1.729,1.169,2.045,1.429,0.555,1.021,0.945,���쐼,3.1,��
2017/03/08,03:10,1.051,1.730,1.168,2.044,1.432,0.558,1.020,0.946,���쐼,3.2,��
2017/03/08,03:20,1.053,1.730,1.169,2.044,1.429,0.555,1.020,0.945,���쐼,3.9,��
2017/03/08,03:30,1.051,1.730,1.168,2.045,1.429,0.555,1.020,0.945,���쐼,4.8,��
2017/03/08,03:40,1.052,1.729,1.170,2.044,1.430,0.554,1.019,0.946,���쐼,4.5,��
2017/03/08,03:50,1.052,1.728,1.168,2.047,1.428,0.556,1.020,0.945,���쐼,4.4,��
2017/03/08,04:00,1.051,1.729,1.170,2.048,1.427,0.555,1.017,0.948,���쐼,5.3,��
2017/03/08,04:10,1.050,1.727,1.169,2.045,1.429,0.555,1.018,0.945,���쐼,5.4,��
2017/03/08,04:20,1.052,1.730,1.169,2.045,1.429,0.555,1.019,0.947,���쐼,5.4,��
2017/03/08,04:30,1.051,1.728,1.169,2.043,1.427,0.555,1.021,0.947,�쐼,7.1,��
2017/03/08,04:40,1.053,1.731,1.170,2.046,1.431,0.557,1.022,0.947,�쐼,8.0,��
2017/03/08,04:50,1.052,1.727,1.171,2.044,1.431,0.555,1.022,0.947,���쐼,8.3,��
2017/03/08,05:00,1.050,1.726,1.171,2.050,1.428,0.554,1.020,0.944,���쐼,8.1,��
2017/03/08,05:10,1.055,1.729,1.169,2.045,1.428,0.554,1.020,0.947,���쐼,8.7,��
2017/03/08,05:20,1.053,1.727,1.167,2.045,1.431,0.555,1.019,0.946,���쐼,9.0,��
2017/03/08,05:30,1.051,1.727,1.169,2.047,1.430,0.552,1.018,0.945,���쐼,8.5,��
2017/03/08,05:40,1.052,1.728,1.172,2.045,1.430,0.555,1.020,0.946,���쐼,9.7,��
2017/03/08,05:50,1.052,1.728,1.168,2.046,1.429,0.554,1.022,0.946,��,9.8,��
2017/03/08,06:00,1.051,1.726,1.169,2.046,1.430,0.553,1.020,0.948,��,8.5,��
2017/03/08,06:10,1.050,1.727,1.167,2.049,1.430,0.553,1.019,0.946,��,8.1,��
2017/03/08,06:20,1.054,1.729,1.168,2.045,1.427,0.555,1.021,0.946,���쐼,7.1,��
2017/03/08,06:30,1.050,1.729,1.168,2.048,1.427,0.555,1.020,0.947,���쐼,7.8,��
2017/03/08,06:40,1.052,1.729,1.168,2.048,1.429,0.556,1.021,0.949,���쐼,7.9,��
2017/03/08,06:50,1.051,1.731,1.166,2.044,1.428,0.556,1.021,0.946,���쐼,7.9,��
2017/03/08,07:00,1.054,1.730,1.169,2.047,1.430,0.555,1.018,0.946,���쐼,6.7,��
2017/03/08,07:10,1.053,1.732,1.171,2.051,1.427,0.556,1.022,0.947,���쐼,7.3,��
2017/03/08,07:20,1.052,1.728,1.170,2.052,1.431,0.555,1.021,0.946,���쐼,6.4,��
2017/03/08,07:30,1.057,1.733,1.170,2.048,1.429,0.555,1.020,0.948,�쐼,6.4,��
2017/03/08,07:40,1.057,1.728,1.172,2.053,1.432,0.556,1.021,0.947,�쐼,6.1,��
2017/03/08,07:50,1.056,1.732,1.172,2.050,1.433,0.556,1.023,0.948,���쐼,7.4,��
2017/03/08,08:00,1.055,1.730,1.175,2.048,1.429,0.557,1.022,0.947,���쐼,7.2,��
2017/03/08,08:10,1.056,1.731,1.175,2.051,1.431,0.557,1.022,0.949,���쐼,7.6,��
2017/03/08,08:20,1.058,1.727,1.176,2.047,1.433,0.557,1.022,0.948,���쐼,8.1,��
2017/03/08,08:30,1.056,1.728,1.175,2.050,1.432,0.557,1.022,0.947,���쐼,9.5,��
2017/03/08,08:40,1.053,1.728,1.174,2.048,1.432,0.557,1.022,0.947,�쐼,8.3,��
2017/03/08,08:50,1.058,1.725,1.175,2.051,1.434,0.557,1.023,0.948,���쐼,9.1,��
2017/03/08,09:00,1.058,1.730,1.173,2.053,1.431,0.557,1.023,0.951,���쐼,8.6,��
2017/03/08,09:10,1.058,1.731,1.176,2.051,1.434,0.558,1.021,0.950,���쐼,7.4,��
2017/03/08,09:20,1.058,1.732,1.176,2.051,1.431,0.558,1.023,0.950,�쐼,7.0,��
2017/03/08,09:30,1.058,1.729,1.175,2.052,1.433,0.558,1.021,0.949,�쐼,9.2,��
2017/03/08,09:40,1.059,1.728,1.174,2.051,1.434,0.558,1.022,0.950,���쐼,8.7,��
2017/03/08,09:50,1.060,1.727,1.172,2.051,1.436,0.560,1.021,0.949,���쐼,8.4,��
2017/03/08,10:00,1.058,1.726,1.176,2.054,1.432,0.560,1.022,0.948,��,9.3,��
2017/03/08,10:10,1.057,1.731,1.176,2.053,1.435,0.559,1.022,0.948,��,9.8,��
2017/03/08,10:20,1.056,1.730,1.178,2.053,1.437,0.558,1.022,0.949,���쐼,9.2,��
2017/03/08,10:30,1.059,1.729,1.175,2.056,1.434,0.558,1.023,0.949,�쐼,10.4,��
2017/03/08,10:40,1.060,1.729,1.178,2.055,1.435,0.561,1.021,0.948,��,11.3,��
2017/03/08,10:50,1.058,1.732,1.176,2.055,1.436,0.558,1.022,0.949,���쐼,8.9,��
2017/03/08,11:00,1.059,1.731,1.179,2.053,1.439,0.559,1.021,0.946,��,10.4,��
2017/03/08,11:10,1.059,1.731,1.176,2.056,1.438,0.559,1.019,0.946,��,9.5,��
2017/03/08,11:20,1.062,1.730,1.179,2.057,1.436,0.557,1.020,0.946,��,9.3,��
2017/03/08,11:30,1.060,1.730,1.178,2.056,1.439,0.558,1.021,0.946,��,7.6,��
2017/03/08,11:40,1.061,1.734,1.178,2.058,1.440,0.558,1.019,0.948,��,7.4,��
2017/03/08,11:50,1.060,1.733,1.178,2.058,1.437,0.558,1.020,0.951,��,9.0,��
2017/03/08,12:00,1.061,1.734,1.179,2.057,1.439,0.558,1.022,0.950,���쐼,9.4,��
2017/03/08,12:10,1.062,1.733,1.175,2.058,1.440,0.560,1.020,0.950,���쐼,9.1,��
2017/03/08,12:20,1.061,1.736,1.175,2.057,1.438,0.559,1.020,0.950,��,10.0,��
2017/03/08,12:30,1.061,1.735,1.176,2.057,1.437,0.560,1.021,0.952,��,10.6,��
2017/03/08,12:40,1.060,1.736,1.180,2.059,1.440,0.559,1.021,0.950,��,8.8,��
2017/03/08,12:50,1.064,1.734,1.177,2.057,1.438,0.560,1.024,0.950,��,8.7,��
2017/03/08,13:00,1.062,1.736,1.178,2.056,1.439,0.559,1.021,0.950,���k��,9.4,��
2017/03/08,13:10,1.059,1.735,1.180,2.061,1.441,0.560,1.021,0.950,���k��,8.6,��
2017/03/08,13:20,1.065,1.732,1.178,2.057,1.440,0.560,1.022,0.950,��,9.2,��
2017/03/08,13:30,1.062,1.733,1.179,2.057,1.440,0.561,1.020,0.952,���k��,9.7,��
2017/03/08,13:40,1.064,1.733,1.179,2.058,1.441,0.562,1.023,0.951,��,8.8,��
2017/03/08,13:50,1.062,1.740,1.177,2.058,1.443,0.561,1.022,0.950,���k��,10.4,��
2017/03/08,14:00,1.063,1.738,1.179,2.060,1.443,0.560,1.023,0.948,���k��,10.0,��
2017/03/08,14:10,1.062,1.736,1.181,2.063,1.442,0.561,1.022,0.949,���k��,9.8,��
2017/03/08,14:20,1.062,1.735,1.180,2.058,1.441,0.559,1.021,0.949,��,10.0,��
2017/03/08,14:30,1.062,1.741,1.179,2.061,1.444,0.559,1.024,0.949,���쐼,9.8,��
2017/03/08,14:40,1.063,1.740,1.181,2.058,1.443,0.558,1.019,0.946,���쐼,8.4,��
2017/03/08,14:50,1.065,1.742,1.178,2.062,1.442,0.559,1.022,0.950,���쐼,11.0,��
2017/03/08,15:00,1.064,1.739,1.179,2.058,1.441,0.560,1.023,0.948,��,11.0,��
2017/03/08,15:10,1.063,1.743,1.180,2.060,1.443,0.559,1.024,0.948,��,10.6,��
2017/03/08,15:20,1.063,1.745,1.178,2.061,1.439,0.560,1.021,0.949,���쐼,9.6,��
2017/03/08,15:30,1.061,1.741,1.181,2.057,1.440,0.559,1.023,0.949,��,7.1,��
2017/03/08,15:40,1.061,1.743,1.181,2.061,1.442,0.559,1.022,0.949,��,6.9,��
2017/03/08,15:50,1.062,1.743,1.180,2.062,1.443,0.562,1.022,0.952,���k��,8.7,��
2017/03/08,16:00,1.061,1.743,1.178,2.062,1.441,0.559,1.024,0.950,��,12.7,��
2017/03/08,16:10,1.064,1.741,1.180,2.059,1.439,0.560,1.021,0.950,��,10.9,��
2017/03/08,16:20,1.059,1.743,1.179,2.059,1.442,0.559,1.023,0.951,��,9.1,��
2017/03/08,16:30,1.063,1.742,1.177,2.061,1.442,0.561,1.025,0.948,��,8.7,��
2017/03/08,16:40,1.062,1.743,1.179,2.062,1.441,0.557,1.025,0.948,���쐼,7.8,��
2017/03/08,16:50,1.063,1.745,1.179,2.060,1.440,0.558,1.025,0.948,��,8.3,��
2017/03/08,17:00,1.060,1.741,1.179,2.058,1.442,0.561,1.026,0.950,��,6.9,��
2017/03/08,17:10,1.060,1.740,1.179,2.062,1.439,0.559,1.024,0.951,��,7.6,��
2017/03/08,17:20,1.058,1.744,1.180,2.063,1.440,0.559,1.025,0.950,��,7.1,��
2017/03/08,17:30,1.061,1.741,1.177,2.060,1.439,0.560,1.025,0.949,��,6.4,��
2017/03/08,17:40,1.060,1.741,1.177,2.060,1.441,0.558,1.025,0.949,��,6.9,��
2017/03/08,17:50,1.061,1.743,1.177,2.061,1.441,0.560,1.025,0.951,��,6.7,��
2017/03/08,18:00,1.062,1.741,1.175,2.060,1.439,0.560,1.024,0.950,���쐼,5.9,��
2017/03/08,18:10,1.060,1.742,1.176,2.059,1.440,0.560,1.023,0.949,��,7.1,��
2017/03/08,18:20,1.059,1.740,1.175,2.058,1.439,0.559,1.023,0.949,��,6.7,��
2017/03/08,18:30,1.062,1.743,1.176,2.059,1.439,0.557,1.022,0.949,���쐼,6.7,��
2017/03/08,18:40,1.059,1.738,1.178,2.059,1.440,0.560,1.024,0.950,��,6.6,��
2017/03/08,18:50,1.059,1.742,1.177,2.060,1.441,0.559,1.025,0.950,��,6.0,��
2017/03/08,19:00,1.059,1.742,1.173,2.060,1.440,0.559,1.022,0.950,��,5.3,��
2017/03/08,19:10,1.061,1.740,1.174,2.059,1.440,0.557,1.023,0.948,���쐼,4.5,��
2017/03/08,19:20,1.058,1.740,1.175,2.057,1.441,0.558,1.024,0.949,���쐼,4.6,��
2017/03/08,19:30,1.057,1.738,1.180,2.057,1.442,0.558,1.023,0.949,���쐼,4.5,��
2017/03/08,19:40,1.056,1.738,1.174,2.056,1.441,0.557,1.024,0.950,���쐼,4.2,��
2017/03/08,19:50,1.058,1.739,1.173,2.058,1.440,0.559,1.023,0.950,���쐼,4.3,��
2017/03/08,20:00,1.059,1.739,1.175,2.057,1.441,0.557,1.023,0.949,���쐼,4.6,��
2017/03/08,20:10,1.058,1.741,1.178,2.059,1.443,0.558,1.023,0.949,���쐼,5.2,��
2017/03/08,20:20,1.058,1.739,1.177,2.062,1.441,0.557,1.023,0.948,���쐼,4.4,��
2017/03/08,20:30,1.057,1.740,1.175,2.055,1.439,0.557,1.022,0.949,���쐼,4.6,��
2017/03/08,20:40,1.055,1.740,1.175,2.058,1.440,0.558,1.022,0.949,�쐼,5.5,��
2017/03/08,20:50,1.059,1.740,1.176,2.058,1.439,0.557,1.022,0.948,���쐼,5.3,��
2017/03/08,21:00,1.056,1.739,1.176,2.054,1.440,0.559,1.023,0.948,���쐼,6.1,��
2017/03/08,21:10,1.058,1.737,1.175,2.058,1.439,0.557,1.023,0.950,���쐼,7.3,��
2017/03/08,21:20,1.056,1.738,1.175,2.056,1.442,0.556,1.022,0.947,���쐼,6.7,��
2017/03/08,21:30,1.056,1.737,1.175,2.056,1.436,0.559,1.022,0.951,���쐼,6.1,��
2017/03/08,21:40,1.057,1.739,1.175,2.058,1.439,0.558,1.021,0.948,���쐼,6.6,��
2017/03/08,21:50,1.057,1.736,1.176,2.058,1.437,0.558,1.025,0.948,���쐼,6.6,��
2017/03/08,22:00,1.058,1.738,1.175,2.058,1.440,0.557,1.024,0.949,���쐼,5.9,��
2017/03/08,22:10,1.059,1.737,1.175,2.058,1.437,0.559,1.023,0.948,��,6.0,��
2017/03/08,22:20,1.056,1.737,1.175,2.057,1.438,0.559,1.024,0.948,���쐼,6.4,��
2017/03/08,22:30,1.060,1.739,1.174,2.057,1.438,0.558,1.023,0.949,���쐼,8.1,��
2017/03/08,22:40,1.057,1.736,1.174,2.056,1.441,0.556,1.022,0.949,���쐼,7.2,��
2017/03/08,22:50,1.058,1.737,1.177,2.056,1.440,0.559,1.022,0.947,��,8.8,��
2017/03/08,23:00,1.061,1.739,1.175,2.056,1.438,0.559,1.024,0.948,��,8.4,��
2017/03/08,23:10,1.058,1.738,1.175,2.055,1.438,0.557,1.023,0.947,��,9.7,��
2017/03/08,23:20,1.059,1.738,1.173,2.056,1.438,0.560,1.024,0.947,��,10.4,��
2017/03/08,23:30,1.056,1.739,1.174,2.058,1.437,0.560,1.023,0.950,��,10.4,��
2017/03/08,23:40,1.059,1.738,1.174,2.058,1.439,0.558,1.022,0.950,��,10.7,��
2017/03/08,23:50,1.059,1.737,1.175,2.061,1.439,0.558,1.023,0.948,��,8.9,��
